Regional Weather Roundup
Issued by NWS Portland, ME

Home | Current Version | Previous Version | Text Only | Print | Product List | Glossary On
Versions: 1 2 3 4 5 6 7 8 9 10 11 12 13 14 15 16 17 18 19 20 21 22 23 24 25 26 27 28 29 30 31 32 33 34 35 36 37 38 39 40 41 42 43 44 45 46 47 48 49 50
873
ASUS41 KGYX 061810
RWRGYX
WEATHER ROUNDUP FOR MAINE AND NEW HAMPSHIRE
NATIONAL WEATHER SERVICE GRAY ME
100 PM EST SAT FEB 06 2016

MEZ002-005-006-010-012-015-018-020-021-024-026-027-029-061900-
MAINE

CITY           SKY/WX    TMP DP  RH WIND       PRES   REMARKS
PORTLAND       MOSUNNY   33  24  69 SW10      30.25F
6HR MIN TEMP:  12; 6HR MAX TEMP:  33; 6HR PCP: TRACE;

SANFORD        SUNNY     32  21  64 S7        30.26F
BAR HARBOR     MOSUNNY   34  21  60 SW10      30.24F
WISCASSET      SUNNY     35  23  61 SW12G17   30.24F
6HR MIN TEMP:   9; 6HR MAX TEMP:  35;

ROCKLAND       SUNNY     34  22  61 SW14G21   30.24F
FRYEBURG       MOSUNNY   34  20  56 SW16G23   30.20F
6HR MIN TEMP:  13; 6HR MAX TEMP:  35;

LEWISTONAUBURN MOSUNNY   34  18  51 SW13      30.20F
AUGUSTA        SUNNY     32  18  56 VRB7      30.20F
6HR MIN TEMP:  14; 6HR MAX TEMP:  32;

WATERVILLE     MOSUNNY   34  18  52 VRB5      30.17F
BANGOR         PTSUNNY   31  18  58 S10       30.21F
6HR MIN TEMP:   5; 6HR MAX TEMP:  31;

GREENVILLE       N/A     26  15  63 VRB3      30.06F
6HR MIN TEMP:  14; 6HR MAX TEMP:  28;

MILLINOCKET    PTSUNNY   29  17  61 VRB3      30.17F
6HR MIN TEMP:  15; 6HR MAX TEMP:  29;

HOULTON        CLOUDY    25  16  68 SW9G20    30.13F
6HR MIN TEMP:  -1; 6HR MAX TEMP:  25;

PRESQUE ISLE   CLOUDY    25  13  60 SW12      30.10F WCI  14
6HR MIN TEMP:   1; 6HR MAX TEMP:  25;

FRENCHVILLE    CLOUDY    21   9  59 W13       30.03F WCI   9
6HR MIN TEMP:   4; 6HR MAX TEMP:  21; 6HR PCP: TRACE;

CARIBOU        MOSUNNY   23  11  60 S6        30.07F
6HR MIN TEMP:   6; 6HR MAX TEMP:  23;

$$

NHZ002-005-008-009-011-012-014-061900-
NEW HAMPSHIRE

CITY           SKY/WX    TMP DP  RH WIND       PRES   REMARKS
PORTSMOUTH     PTSUNNY   34  26  72 S8        30.26F
ROCHESTER      SUNNY     34  25  69 VRB3      30.25F
6HR MIN TEMP:  15; 6HR MAX TEMP:  35;

NASHUA         SUNNY     37  25  60 VRB7      30.27F
MANCHESTER     PTSUNNY   36  26  67 S10       30.25F
6HR MIN TEMP:  15; 6HR MAX TEMP:  36;

CONCORD        MOSUNNY   37  18  46 SW9       30.24F
6HR MIN TEMP:   8; 6HR MAX TEMP:  38;

LACONIA        CLOUDY    36  19  51 SW12      30.21F
PLYMOUTH       FAIR      36  19  51 W6        30.20F
BERLIN         CLOUDY    33  19  56 SW9G16    30.11F
6HR MIN TEMP:  16; 6HR MAX TEMP:  33;

WHITEFIELD     CLOUDY    34  18  52 SW15G23   30.13F
6HR MIN TEMP:  16; 6HR MAX TEMP:  34;

JAFFREY        SUNNY     33  19  56 S8        30.22F
6HR MIN TEMP:  12; 6HR MAX TEMP:  33;

KEENE          MOSUNNY   36  18  48 SW9       30.24F
LEBANON        MOSUNNY   38  19  46 S12G24    30.19F
6HR MIN TEMP:  17; 6HR MAX TEMP:  38;

MT WASHINGTON  FOG        9   9 100 W55         N/A  VSB 0   WCI -20
6HR MIN TEMP:   2; 6HR MAX TEMP:   9;

$$

VTZ005-007-008-061900-
VERMONT

CITY           SKY/WX    TMP DP  RH WIND       PRES   REMARKS
ST JOHNSBURY     N/A     35  18  49 MISG      30.13F
MONTPELIER     CLOUDY    35  18  49 S10G20    30.16F
BURLINGTON     CLOUDY    36  19  50 S16G23    30.14F
$$

MAZ007-012-024-CTZ003-RIZ002-NYZ038-NYZ072-061900-
SOUTHERN NEW ENGLAND AND NY

CITY           SKY/WX    TMP DP  RH WIND       PRES   REMARKS
BOSTON         CLOUDY    34  24  67 SW12      30.31F
WORCESTER        N/A    N/A N/A N/A MISG      30.25F
NANTUCKET      CLOUDY    35  21  56 SW9       30.35F
PROVIDENCE     PTSUNNY   34  22  61 SW9       30.34F
HARTFORD       PTSUNNY   35  21  56 S8        30.30F
ALBANY         PTSUNNY   39  18  42 S10       30.23F
NEW YORK CITY  CLOUDY    39  20  46 SW9       30.35F
$$

ANZ081-ANZ082-ANZ150-NHZ014-MEZ023>029-061900-
COASTAL MARINE OBSERVATIONS

STATION/POSITION TIME  TEMP    WIND        PRES    WAVE
                       AIR SEA DIR/SP/G            HT/PER
                 (UTC) (F)     (DEG/KT/KT) (MB)    (FT/S)
MOUNT DESERT ROC 1800   34     220/ 21/ 23 1024.4F
MATINICUS ROCK   1700          240/ 19/ 20 1025.0F
ISLE OF SHOALS   1700   31     240/ 13/ 15 1025.9F
JEFFREYS LEDGE   1704      44                N/A     4/11
CASHES LEDGE BUO 1750   35 43  230/ 17/ 21 1025.0F   4/10
GEORGES BANK BUO 1750   37 44              1027.5F  11/ 9
$$

.............KEY..............
   WCI - WIND CHILL
   TC  - TEMPERATURE IN CELSIUS
   VSB - VISIBILITY IN MILES
   HX  - HEAT INDEX
   FAIR- INDICATES FEW OR NO CLOUDS BELOW 12,000 FT, WITH NO
         SIGNIFICANT WEATHER AND/OR OBSTRUCTIONS TO VISIBILITY.






USA.gov is the U.S. government's official web portal to all federal, state and local government web resources and services.